User: anonymous   Login
Location: Oshawa
(43.9000°N, 78.8670°W)
Time: 04:04:49
(UTC-04:00)
Language:

Iridium 54 - Orbit

View from above orbital plane
View from above orbital plane
View from above satellite
View from above satellite

Ground track
Ground track

The orbit data is extracted from the following two-line orbital elements,

1 25171U 98010C   17234.71687505 +.00000179 +00000-0 +56765-4 0  9990
2 25171 086.3992 322.6024 0002195 093.7485 266.3962 14.34222219021486
Epoch (UTC): 22 August 2017 17:12:18
Eccentricity: 0.0002195
inclination: 86.3992°
perigee height: 776 km
apogee height: 779 km
right ascension of ascending node: 322.6024°
argument of perigee: 93.7485°
revolutions per day: 14.34222219
mean anomaly at epoch: 266.3962°
orbit number at epoch: 2148

The dashed part of the orbit path shows where the satellite is in the earth's shadow,  

DLR